Location: *
(33.8649°S, 62.1526°E)
Time: 04:13:03
(UTC+00:00)

Milstar 3 Cent rocket - Pass Details

Date: 17 January 2021
Orbit: 706 x 5147 km, 28.3° (Epoch: 27 February)

Event Time Altitude Azimuth Distance (km) Brightness Sun altitude
Exits shadow 23:45:38 21° 304° (NW) 1,565 3.0 -13.9°
Maximum altitude 23:48:25 45° 8° (N) 1,016 2.4 -13.4°
Drops below altitude 10° 23:53:57 10° 80° (E) 2,725 5.5 -12.5°
Sets 23:57:19 0° 85° (E) 4,091 6.6 -11.9°
